This is the latest recevied weather packets stored in our database for station/object TA2R-16. If no packets are shown the sender has not sent any weather packets the latest 1 day(s).
| Time | Temp. | Humidity | Pressure | Rain* | Wind** | Luminosity | Snow |
|---|---|---|---|---|---|---|---|
| 1777989601 | 31.67° C | 25% | - | - | 0 m/s | - | - |
| 1777987804 | 32.22° C | 24% | - | - | 0 m/s | - | - |
| 1777986003 | 32.78° C | 24% | - | - | 0 m/s | - | - |
| 1777984202 | 32.78° C | 21% | - | - | 0 m/s | - | - |
| 1777982406 | 32.78° C | 25% | - | - | 0 m/s | - | - |
| 1777980602 | 33.33° C | 24% | - | - | 0 m/s | - | - |
| 1777978802 | 33.89° C | 23% | - | - | 0 m/s | - | - |
| 1777977003 | 34.44° C | 23% | - | - | 0 m/s | - | - |
| 1777975202 | 33.33° C | 24% | - | - | 0 m/s | - | - |
| 1777973402 | 32.78° C | 25% | - | - | 0 m/s | - | - |
| 1777971602 | 32.22° C | 23% | - | - | 0 m/s | - | - |
| 1777969803 | 32.22° C | 26% | - | - | 0 m/s | - | - |
| 1777968003 | 32.22° C | 27% | - | - | 0 m/s | - | - |
| 1777966202 | 31.11° C | 28% | - | - | 0 m/s | - | - |
| 1777964401 | 28.89° C | 27% | - | - | 0 m/s | - | - |
| 1777962602 | 27.78° C | 29% | - | - | 0 m/s | - | - |
| 1777960802 | 27.78° C | 30% | - | - | 0 m/s | - | - |
| 1777959001 | 27.22° C | 30% | - | - | 0 m/s | - | - |
| 1777957202 | 27.22° C | 30% | - | - | 0 m/s | - | - |
| 1777955401 | 26.67° C | 31% | - | - | 0 m/s | - | - |
| 1777953603 | 26.11° C | 32% | - | - | 0 m/s | - | - |
| 1777951802 | 26.11° C | 32% | - | - | 0 m/s | - | - |
| 1777950003 | 25.56° C | 32% | - | - | 0 m/s | - | - |
* Rain since midnight (hover to see other rain measurements)
** Current wind speed in m/s (hover to see current wind gust speed)